Tracking 28238 objects as of 28-Nov-2023
HD Live streaming from Space Station
objects crossing your sky now

TRISAT

Track TRISAT now!
10-day predictions


NORAD ID: 46280
Int'l Code: 2020-061J
Perigee: 480.0 km
Apogee: 483.0 km
Inclination: 97.4 °
Period: 94.1 minutes
Semi major axis: 6852 km
RCS: Unknown
Launch date: September 3, 2020
Source: Republic of Slovenia (SVN)
Launch site: FRENCH GUIANA (FRGUI)
Your satellite tracking list
Your tracking list is empty




NASA's NSSDC Master Catalog

Two Line Element Set (TLE):
1 46280U 20061J   23332.13193164  .00040629  00000-0  13751-2 0  9990
2 46280  97.3729  36.9476 0002236 191.0698 169.0494 15.30481799178748
Source of the keplerian elements: AFSPC